Location: *
(46.3500°N, 10.9000°E)
Time: 23:00:13
(UTC+00:00)

A-11 Canister half - Pass Details

Date: 23 April 2021
Orbit: 1526 x 1682 km, 47.3° (Epoch: 13 May)

Event Time Altitude Azimuth Distance (km) Brightness Sun altitude
Rises 16:20:17 0° 268° (W) 4,890 13.4 18.6°
Reaches altitude 10° 16:23:24 10° 269° (W) 3,917 13.8 18.0°
Maximum altitude 16:33:34 85° 359° (N) 1,692 9.6 16.3°
Drops below altitude 10° 16:43:47 10° 89° (E) 3,938 10.6 14.5°
Sets 16:46:56 0° 90° (E) 4,917 11.0 14.0°
